Showing default

CALSPHERE 2, 902

Orbit data source: Space-Track

CALSPHERE 2, 902 is a payload satellite owned by NRL (US) in LEO that was launched on Tue, 06 Oct 1964 UTC via a THOR ABLESTAR launch vehicle from the Air Force Western Test Range (AFWTR). Payload-class satellites include a variety of spacecraft equipped with specific instruments for various scientific and technological missions. These include communications satellites like Starlink; space stations such as the ISS; scientific satellites like the Hubble; Earth observation satellites from companies like Planet Labs, Umbra, and HawkEye 360; GPS; miniature CubeSats for education and research; and military/defense satellites.

Loading next visibility...
Identifier
902, 1964-063E
Orbit
LEO
Country
Flag of USUS
Related business
Manufacturer
NRL
Mission
Operational spacecraft
Bus & Motor
NRL 14", Unknown motor
Mass
10 kg wet, 10 kg dry
Launch date (UTC)
1964-10-06 (61 years ago)
Launch vehicle
THOR ABLESTAR
Launch site
Air Force Western Test Range (AFWTR)
Object type
Payload
Rocket body
Debris
Shape & HBR
Unknown
Radar Cross Section
Small (<0.1 m²)

Expand to show TLE details & history
Last TLE update: 13 hours ago

TLE from 13 hours ago
0 CALSPHERE 2
1   902U 64063E   25298.43219656  .00000053  00000-0  66914-4 0  9990
2   902  90.2327  70.2492 0018447 182.9889 248.1690 13.52876702824521
Epoch: 2025-10-25T10:22Z
TLE epoch observation values (Epoch: 2025-10-25T10:22:21.782Z)
Latitude
71.02776°
Longitude
-120.07781°
Altitude
1,079.177 km
Speed
7.316 km/s
True Right ascension
04h 38m 18s
True Declination
70° 55' 35"
Sunlit
Object was in daylight at epoch
Visualization orbit readout
Latitude
Unknown
Longitude
Unknown
Altitude
Unknown
Speed
Unknown
Apparent Right ascension
Unknown
Apparent Declination
Unknown
Sunlit
N/A
Visualization observer readout
Local Sidereal Time
18:48:07
Azimuth
Unknown
Elevation
Unknown
Doppler factor
Unknown
Orbital elements
Apogee altitude
1,072.458 km
Perigee altitude
1,045.02 km
Semi-major axis
7,436.876 km
Eccentricity
0.00184
Inclination
90.2327°
RAAN
70.2492°
Arg. of periapsis
182.9889°
True anomaly
247.97294°
Mean anomaly
248.169°
Eccentric anomaly
248.07095°
Mean motion
3.38421 °/min
Orbital period
106.38 mins
BSTAR
0.000066914
Loading maneuver chart data...
Computing Atmospheric mass density...
Loading historical data...
Loading historical data...
Loading historical data...
Loading historical data...
Loading historical data...
Loading historical data...
Loading historical data...

Documentation

Showing up to 5 results
|